PCSAT (NO-44)

Last updated on Sat Jul 05 2025 00:03:06 GMT+0000 (Coordinated Universal Time)

1 26931U 01043C 25185.09537309 .00000084 00000+0 62359-4 0 9996 2 26931 67.0513 64.4553 0006186 276.9259 83.1139 14.31744424240615
UTC large
Height (km)
Speed (km/s)
/
Latitude / Longitude
Inclination (degrees)
Orbital Period (minutes)
Azimuth
Elevation
Range (km)
Doppler Factor

Next 0 passes for location: London (51.5072 / 0.1276)

Sorry there are no passes over London.